Retour au catalogue

COSMOS 1823 DEB

ActifLEO
NORAD 18805·DEBRIS·🇷🇺 Russia

Lancé Feb 20, 1987 depuis Plesetsk Cosmodrome

Loading…

Prochains Passages (prochaines 24 heures)

TLE

FraisSource: Space-Track

Époque: Sep 14, 2026, 22:26 UTC

1 18805U 87020AR  26257.93481575  .00000017  00000-0  24124-3 0  9997
2 18805  73.7118 340.9062 0021206 248.3271 229.7026 12.43343903756034

Suivez COSMOS 1823 DEB en temps réel avec AllMySat

Download on the App Store